TimeCDT,TemperatureF,Dew PointF,Humidity,Sea Level PressureIn,VisibilityMPH,Wind Direction,Wind SpeedMPH,Gust SpeedMPH,PrecipitationIn,Events,Conditions,WindDirDegrees,DateUTC
12:51 AM,70.0,62.1,76,30.15,10.0,ESE,4.6,-,N/A,,Mostly Cloudy,110,2013-09-06 05:51:00
1:51 AM,73.9,62.1,66,30.14,10.0,Calm,Calm,-,N/A,,Mostly Cloudy,0,2013-09-06 06:51:00
2:51 AM,73.9,61.0,64,30.13,10.0,Calm,Calm,-,N/A,,Overcast,0,2013-09-06 07:51:00
3:51 AM,72.0,62.1,71,30.13,10.0,Calm,Calm,-,N/A,,Overcast,0,2013-09-06 08:51:00
4:51 AM,71.1,62.1,73,30.13,10.0,East,3.5,-,N/A,,Mostly Cloudy,100,2013-09-06 09:51:00
5:51 AM,70.0,62.1,76,30.13,10.0,Calm,Calm,-,N/A,,Mostly Cloudy,0,2013-09-06 10:51:00
6:51 AM,70.0,63.0,78,30.14,10.0,Calm,Calm,-,N/A,,Mostly Cloudy,0,2013-09-06 11:51:00
7:51 AM,72.0,64.9,78,30.15,8.0,Calm,Calm,-,N/A,,Scattered Clouds,0,2013-09-06 12:51:00
8:51 AM,75.0,64.0,69,30.16,9.0,SE,3.5,-,N/A,,Scattered Clouds,130,2013-09-06 13:51:00
9:51 AM,81.0,61.0,50,30.17,10.0,South,3.5,-,N/A,,Scattered Clouds,170,2013-09-06 14:51:00
10:51 AM,82.9,62.1,49,30.16,10.0,SSW,4.6,-,N/A,,Scattered Clouds,210,2013-09-06 15:51:00
11:51 AM,84.0,61.0,46,30.15,10.0,ESE,8.1,-,N/A,,Scattered Clouds,120,2013-09-06 16:51:00
12:51 PM,84.9,61.0,44,30.12,10.0,ESE,11.5,-,N/A,,Scattered Clouds,110,2013-09-06 17:51:00
1:51 PM,86.0,60.1,41,30.10,10.0,SE,9.2,-,N/A,,Partly Cloudy,140,2013-09-06 18:51:00
2:51 PM,88.0,60.1,39,30.07,10.0,South,8.1,27.6,N/A,,Partly Cloudy,180,2013-09-06 19:51:00
3:51 PM,88.0,57.9,36,30.06,10.0,South,10.4,-,N/A,,Partly Cloudy,170,2013-09-06 20:51:00
4:51 PM,88.0,55.0,32,30.04,10.0,Variable,6.9,-,N/A,,Scattered Clouds,0,2013-09-06 21:51:00
5:51 PM,87.1,57.9,37,30.02,9.0,SE,8.1,-,N/A,,Scattered Clouds,130,2013-09-06 22:51:00
6:51 PM,86.0,59.0,40,30.02,10.0,SE,10.4,-,N/A,,Partly Cloudy,130,2013-09-06 23:51:00
7:51 PM,84.0,60.1,44,30.02,10.0,SSE,9.2,-,N/A,,Scattered Clouds,150,2013-09-07 00:51:00
8:51 PM,82.0,62.1,51,30.03,10.0,SSE,6.9,-,N/A,,Partly Cloudy,150,2013-09-07 01:51:00
9:51 PM,81.0,61.0,50,30.02,10.0,South,9.2,-,N/A,,Clear,170,2013-09-07 02:51:00
10:51 PM,78.1,62.1,58,30.02,10.0,South,5.8,-,N/A,,Clear,190,2013-09-07 03:51:00
11:51 PM,77.0,61.0,58,30.02,10.0,South,4.6,-,N/A,,Clear,190,2013-09-07 04:51:00